LiveATC.Net - Listen to live air traffic control over the Internet!


ICAO: KHKY  IATA: HKY   Airport: Hickory Regional Airport
City: Hickory   State/Province: North Carolina
Country: United States   Continent: North America
KHKY METAR Weather: KHKY 152253Z 27005KT 10SM CLR 31/20 A3010 RMK AO2 SLP168 T03110200
KHKY Flight Activity (FlightAware)
KHKY Airport Info   (iFlightPlanner)
KHKY VFR Sectional Chart   (iFlightPlanner) 
KHKY IFR Low Chart   (iFlightPlanner) 

KHKY Tower
Feed Status: DOWN
Last heard on: 2019-06-25 00:48:03 (20 days 22 hours 24 minutes ago)
KHKY Tower Audio Archives
FacilityFrequency
Hickory Tower128.150

NOTICE

Unauthorized use prohibited. See LiveATC.net Terms of Service


Find LiveATC Audio Streams


Airport/ARTCC Code

Frequency Search
(e.g., 124.400, 128.75)
Site-wide search
 


Browse LiveATC Feeds
Top 50 LiveATC Feeds
LiveATC Feed Map
Bad Weather Areas

LiveATC FAQ
Offer LiveATC feed
Contact LiveATC.net
Press Inquiries

LiveATC on iPhone
LiveATC on Android

Windows Phone
Windows 8/10

LiveATC Mobile
(Mobile browser)

ATC Audio Archives
Interesting Recordings

LiveATC Forums


Home Page
About LiveATC.net
Make a Donation
Terms of Use
Privacy Policy

Canadian Air Freqs

AIRMETs/SIGMETs

FAA Airport Status
Nat'l Airspace Status
Arrival Demand Charts


Server Software By:
Icecast.org
Liquidsoap